Regional Weather Roundup
Issued by NWS State College, PA

Home | Current Version | Previous Version | Graphics & Text | Print | Product List | Glossary Off
Versions: 1 2 3 4 5 6 7 8 9 10 11 12 13 14 15 16 17 18 19 20 21 22 23 24 25 26 27 28 29 30 31 32 33 34 35 36 37 38 39 40 41 42 43 44 45 46 47 48 49 50

000
ASUS41 KCTP 280010
RWRCTP

REGIONAL WEATHER ROUNDUP
NATIONAL WEATHER SERVICE STATE COLLEGE PA
800 PM EDT MON JUL 27 2015

Note: "fair" indicates few or no clouds below 12,000 feet with no
significant weather and/or obstructions to visibility.

* = STATION THAT DOES NOT REPORT PRECIPITATION /E.G. RAIN...SNOW...ETC/
    THUNDER OR FOG.

PAZ002>004-007>009-013>016-020>023-029>032-280100-
WESTERN PENNSYLVANIA

CITY           SKY/WX    TMP DP  RH WIND       PRES   REMARKS
ERIE           CLEAR     82  57  42 E5        30.00S
MEADVILLE      LGT RAIN  79  61  53 N7        30.04R
FRANKLIN*      CLEAR     79  61  53 NE3       30.04R
NEW CASTLE     FAIR      84  65  52 CALM      30.00S
BEAVER COUNTY  CLEAR     82  61  47 N5        30.00S
BUTLER*        CLEAR     81  66  61 CALM      30.01S
PITTSBURGH INT PTCLDY    86  62  44 N9        29.98S
PITTSBURGH     MOCLDY    83  60  45 NE3       29.98S
INDIANA*       PTCLDY    82  68  61 E5        30.03S
LATROBE        CLEAR     82  66  57 CALM      29.99S
WASHINGTON CO* NOT AVBL
$$

PAZ004>006-010>012-017>019-024>028-033>037-041-042-045-046-049>053-280100-
CENTRAL PENNSYLVANIA

CITY           SKY/WX    TMP DP  RH WIND       PRES   REMARKS
BRADFORD       CLEAR     77  59  53 CALM      30.07R
DUBOIS         CLEAR     81  61  50 E3        30.03R
CLEARFIELD     CLEAR     78  66  66 E6        30.03R
JOHNSTOWN      PTCLDY    75  66  73 NE5       30.05R HAZE
ALTOONA        PTCLDY    77  69  76 SE3       30.03R
STATE COLLEGE  CLEAR     79  70  73 CALM      30.02R
WILLIAMSPORT   CLEAR     81  68  64 CALM      29.97S
SELINSGROVE    CLEAR     75  73  93 CALM      29.99R FOG
FT INDIANTOWN  CLEAR     77  72  85 NW2       29.99R
CAPITAL CITY   CLEAR     81  71  71 S3        29.98R
HARRISBURG     PTCLDY    81  72  74 CALM      29.97R
YORK           CLEAR     79  71  76 SE3       29.99R
$$

PAZ038>040-043-044-047-048-054-055-060>062-067>071-280100-
EASTERN PENNSYLVANIA

CITY           SKY/WX    TMP DP  RH WIND       PRES   REMARKS
SCRANTON       CLEAR     82  62  50 W6        30.00S
MOUNT POCONO   CLEAR     73  69  87 CALM      30.05S
ALLENTOWN      MOCLDY    83  68  60 CALM      29.98R
QUAKERTOWN*    CLEAR     81  72  74 SW5       30.00S
READING        PTCLDY    81  69  67 S3        29.97R
LANCASTER      CLEAR     79  71  76 SE6       29.99R
COATESVILLE    PTCLDY    77  73  88 CALM      30.02R
POTTSTOWN      MOCLDY    79  72  79 CALM      30.00R
BLUE BELL      PTCLDY    81  72  74 SW5       29.98R
DOYLESTOWN     CLEAR     77  70  79 CALM      29.98S
WILLOW GROVE   NOT AVBL
NORTH PHILA    PTCLDY    83  66  56 S5        30.00R
PHILADELPHIA   PTCLDY    82  69  64 S9        29.98R
$$



USA.gov is the U.S. government's official web portal to all federal, state and local government web resources and services.